Terug naar catalogus

TIANMU-1 06

ActiefWetenschapSSO
NORAD 55976·PAYLOAD·🇨🇳 China

Gelanceerd Mar 22, 2023 vanaf Jiuquan Satellite Launch Center

Loading…

Volgende Passages (komende 24 uur)

TLE

VersSource: Space-Track

Epoch: Sep 14, 2026, 23:11 UTC

1 55976U 23039D   26257.96663012  .00016573  00000-0  29543-3 0  9992
2 55976  97.5253  75.9530 0003520 124.8526 235.3057 15.50170267194746

Volg TIANMU-1 06 in realtime met AllMySat

Download on the App Store